Theta_e
318 318 318 319 320 320 320 320 321 321 321 321 322 322 324 324 324 328 322 329 333 360 360 347 344 342 342 337 336 332 321 317 318 319 320 329 328 335 340 337 338 340 341 346 349
317 317 318 318 319 320 320 320 321 321 320 321 321 322 323 324 326 323 341 356 356 359 343 335 332 331 330 325 325 323 319 317 325 325 322 327 328 331 332 333 335 338 345 347 349
316 316 316 317 318 319 319 320 320 320 320 320 321 322 323 325 322 320 346 357 356 357 334 335 330 326 322 323 323 323 318 322 326 326 326 326 328 332 330 329 335 336 340 344 346
316 316 316 316 317 317 318 319 319 319 319 319 320 321 323 326 310 328 348 352 357 340 331 328 326 320 319 318 323 318 321 323 328 327 326 325 329 328 330 333 339 342 344 344 344
316 315 315 316 316 316 317 317 318 318 318 319 320 321 323 320 318 334 351 352 340 335 328 323 320 320 317 319 321 319 322 325 330 328 327 327 325 326 328 335 341 343 343 343 344
316 316 316 316 316 317 317 317 317 318 318 319 321 321 319 312 325 330 331 332 329 329 326 323 320 322 319 319 319 323 323 325 329 329 328 325 324 327 330 337 339 340 341 343 343
316 316 316 316 316 316 317 317 316 317 318 322 322 323 317 316 325 328 333 332 330 327 322 323 322 319 321 319 323 327 321 326 328 329 327 329 323 324 332 336 337 338 341 342 343
315 315 315 315 315 315 315 315 315 317 323 324 324 324 315 324 327 323 331 331 331 330 323 323 323 320 319 323 322 322 322 318 327 329 329 329 320 326 333 334 334 336 339 340 343
315 315 315 314 314 314 314 314 316 320 325 323 325 324 315 323 319 324 327 325 327 328 326 322 321 317 319 316 316 320 315 316 320 329 326 327 322 328 331 332 332 335 337 338 341
314 314 314 314 314 313 313 314 322 322 325 328 327 319 319 317 322 323 326 327 321 319 317 316 315 313 315 315 309 313 313 317 317 323 325 322 323 330 329 329 330 332 335 336 338
314 314 313 313 312 312 314 320 318 319 322 316 319 315 317 323 326 321 325 324 321 316 310 314 310 309 315 317 317 318 317 315 319 323 322 322 321 329 331 330 329 330 333 334 335
314 313 313 312 312 311 314 314 310 309 306 315 316 320 320 323 316 318 326 318 316 310 312 310 307 315 318 319 317 317 316 315 318 324 321 320 320 325 332 331 331 330 330 332 334
313 313 312 311 311 314 315 311 315 314 306 311 315 314 318 320 315 317 322 318 314 311 311 309 311 316 316 316 315 316 315 316 316 320 321 319 317 321 327 333 333 334 333 333 332
312 312 311 310 309 312 314 316 316 315 304 309 311 313 315 317 313 322 323 318 316 311 311 311 315 313 314 314 316 313 318 317 316 317 311 319 307 317 322 326 331 332 333 333 332
312 312 311 309 310 310 312 315 315 314 298 312 312 320 316 312 314 315 324 320 313 313 312 309 310 312 312 314 317 314 320 317 317 316 314 315 311 314 320 319 325 331 333 334 334
311 311 310 312 313 313 315 315 313 302 298 308 313 311 311 311 313 316 317 321 320 314 313 311 315 314 315 317 318 320 318 318 317 315 308 313 311 312 316 319 323 331 333 335 336
310 309 309 312 307 315 314 310 300 298 311 308 308 311 311 308 310 312 311 312 310 306 306 309 310 313 315 313 318 317 314 307 305 306 305 315 311 314 319 323 325 327 332 335 338
309 308 313 312 314 314 311 303 296 306 308 312 311 311 308 311 309 311 310 309 314 312 307 304 301 310 314 313 313 315 314 308 302 303 306 314 309 314 322 324 325 327 332 334 336
307 311 310 312 314 314 305 296 300 305 310 310 310 308 308 310 310 310 310 309 313 315 307 305 305 312 313 314 316 314 311 317 311 313 308 311 315 320 322 322 323 324 327 331 334
307 308 308 313 315 311 300 295 303 309 308 308 305 308 306 309 308 308 309 312 311 315 317 311 305 311 312 314 315 315 318 309 312 305 303 309 311 312 318 319 322 322 324 328 333
307 302 311 315 314 305 296 298 302 307 308 304 305 307 309 309 310 309 309 313 314 314 317 314 310 309 312 309 308 311 311 313 313 311 305 304 309 321 320 321 321 323 325 327 329
304 297 311 312 300 302 298 301 301 304 307 305 306 306 307 310 310 309 309 312 316 316 312 315 310 305 307 313 314 313 311 313 308 309 310 309 309 322 323 323 324 324 326 328 330
301 301 309 307 293 296 301 301 303 303 303 303 303 306 308 307 307 310 311 316 315 315 313 316 309 304 305 310 312 309 311 313 314 314 310 306 309 322 323 323 324 324 325 328 330
301 296 302 304 302 298 298 300 299 304 303 304 304 306 305 305 309 308 309 313 313 314 324 318 312 308 303 307 310 307 308 311 311 308 308 309 312 318 320 322 323 325 326 327 330
301 298 300 295 299 299 299 298 297 298 303 304 303 303 303 302 305 305 309 311 310 317 314 315 309 310 310 311 311 310 309 309 308 310 308 311 312 317 321 322 324 325 327 326 327
298 296 299 298 298 297 296 295 295 297 300 300 301 304 304 302 305 304 308 310 309 312 312 315 310 311 308 310 310 309 310 310 310 310 311 311 312 319 322 323 324 326 326 326 328
306 303 299 296 296 295 295 295 295 300 300 302 302 302 302 304 307 309 310 311 312 312 310 311 310 310 305 310 310 306 310 311 311 312 312 309 314 319 318 321 323 325 326 326 326
Wind_Speed
21 21 21 21 21 21 20 20 20 19 19 18 16 16 15 15 18 9 13 6 6 19 7 12 13 11 13 14 15 15 14 11 8 14 14 11 12 10 10 12 8 4 20 25 22
21 21 21 22 21 20 20 20 19 19 20 19 18 16 14 14 13 18 8 10 19 17 13 14 12 11 11 12 6 13 4 13 13 12 12 11 10 12 11 11 10 16 24 23 25
22 22 22 22 23 22 21 22 21 20 20 19 18 17 15 16 14 16 9 12 18 18 17 15 14 11 16 13 5 6 8 6 9 13 12 11 13 12 11 11 12 19 23 23 22
23 23 24 23 23 23 23 23 23 22 21 20 18 18 15 10 8 10 7 11 17 21 20 16 16 15 17 11 2 11 7 3 13 12 10 11 11 9 4 12 15 19 21 20 19
22 23 24 25 24 24 24 24 23 22 22 20 17 14 11 12 17 15 12 10 15 20 21 17 17 15 17 4 3 8 7 4 10 7 13 9 8 9 9 9 16 20 19 19 17
21 22 23 24 24 25 24 23 23 23 22 19 14 9 9 18 0 7 10 13 16 20 20 19 15 14 15 10 10 5 7 9 10 12 7 11 11 11 9 14 17 18 18 17 18
22 22 22 24 25 26 26 25 24 23 21 16 9 8 13 18 1 6 10 15 17 21 19 19 18 10 10 13 4 5 10 10 11 10 9 10 11 15 13 15 17 17 16 16 15
22 23 24 24 26 27 27 26 26 21 16 11 8 11 11 3 10 9 11 12 16 17 18 16 14 13 19 5 8 13 15 16 14 11 8 8 13 15 16 16 16 17 16 15 16
23 24 25 26 26 28 28 28 23 14 7 5 9 11 16 5 12 15 15 14 15 13 15 12 13 16 16 15 15 14 15 15 14 13 8 11 15 16 16 16 16 15 15 15 16
22 24 26 27 28 28 29 27 7 6 9 10 11 9 16 14 13 19 17 12 15 15 15 15 11 16 18 15 16 20 20 23 19 13 10 8 12 14 15 15 15 16 15 16 16
22 24 26 29 30 30 19 5 8 10 15 15 8 14 6 6 6 14 19 15 16 16 17 21 18 21 23 22 25 16 16 22 13 19 11 13 9 18 15 15 16 16 17 17 17
24 24 26 30 31 30 14 7 7 7 13 19 23 19 5 10 13 17 19 19 17 19 22 17 24 23 23 23 24 12 14 16 13 16 11 11 11 11 20 17 16 18 18 18 19
23 25 27 30 33 17 8 7 7 8 10 16 24 25 21 13 16 21 24 23 19 23 25 22 22 24 23 22 20 18 17 12 12 11 12 12 9 12 17 19 17 17 18 19 19
22 23 26 31 14 13 5 4 9 6 9 15 14 15 25 18 23 18 24 22 15 22 23 25 21 24 24 24 22 20 19 17 14 14 14 18 13 16 18 21 20 19 19 20 20
23 23 22 18 15 8 10 12 11 7 9 13 15 8 17 26 14 28 25 23 24 19 18 22 23 25 26 23 23 19 19 18 17 13 16 15 10 6 6 14 17 21 21 21 21
23 24 22 12 11 12 11 13 9 9 11 11 12 14 18 24 26 25 25 26 21 19 20 23 22 26 22 22 23 22 23 15 18 13 15 19 12 13 12 13 16 19 22 22 21
26 27 20 12 9 12 11 9 9 13 6 12 15 19 22 19 27 22 30 28 24 22 22 22 25 21 18 22 28 25 22 11 14 14 13 16 15 15 3 14 16 19 20 22 22
27 34 11 9 10 10 9 10 15 9 24 4 14 19 21 20 26 20 28 24 28 24 15 19 22 23 22 28 26 25 23 15 18 13 16 19 16 7 9 10 6 9 20 20 23
32 12 10 8 6 7 9 16 9 18 9 12 11 16 20 20 19 22 27 27 28 27 25 21 26 25 25 21 27 27 25 24 23 20 17 15 16 17 15 14 11 11 14 18 21
12 14 14 3 7 9 12 23 20 11 8 11 18 15 19 22 20 27 25 27 28 31 25 19 16 23 24 21 27 29 20 24 19 22 21 16 11 9 16 14 16 15 15 16 16
11 8 8 5 6 10 15 21 24 28 17 11 15 20 17 19 22 21 26 21 29 29 28 25 12 19 23 25 24 23 24 20 24 20 18 16 14 13 11 9 11 14 13 16 18
9 10 8 5 11 10 16 22 20 24 18 20 17 17 19 18 18 24 22 20 16 28 32 26 14 18 24 22 23 26 28 27 15 23 19 17 15 13 14 14 14 13 7 9 6
8 11 9 6 9 14 18 21 19 16 16 20 23 23 17 18 18 16 18 19 6 20 28 22 21 16 22 21 24 27 25 27 25 21 20 19 16 15 5 8 10 7 6 7 5
10 8 8 9 12 14 16 11 8 12 17 22 22 21 22 22 19 14 19 11 3 13 6 22 21 25 18 20 21 26 27 28 26 21 20 22 21 17 13 16 16 13 12 12 9
9 7 8 9 1 5 10 11 14 14 12 18 15 23 22 21 20 19 18 14 7 11 12 17 24 24 26 25 23 24 25 26 30 28 25 20 25 22 16 14 9 11 12 10 11
11 7 8 12 13 11 12 13 18 18 15 11 16 9 15 21 19 17 21 21 10 18 18 21 19 22 25 24 26 22 27 25 29 30 27 26 25 17 16 19 17 14 14 12 8
5 11 9 10 13 11 11 11 13 7 4 15 10 10 11 8 18 18 18 20 17 11 19 22 17 18 21 22 22 26 28 25 26 26 21 24 24 22 22 12 9 14 14 13 13
Wind_Direction
0 357 354 350 347 344 341 339 336 335 332 329 327 323 319 314 298 230 253 257 167 167 218 191 226 235 241 255 253 275 270 62 90 70 99 124 110 68 85 131 141 47 133 137 147
358 355 351 347 344 341 337 335 332 330 328 326 323 321 318 320 282 264 224 130 142 164 199 200 216 232 249 249 254 267 7 57 46 111 108 102 111 120 140 116 123 119 120 143 148
355 352 349 346 342 339 335 331 329 326 323 321 319 318 318 311 273 231 135 147 160 181 218 211 248 232 257 259 258 305 37 64 82 83 122 119 116 153 124 148 138 134 145 152 158
351 348 346 343 340 336 332 328 324 321 318 315 313 313 317 268 281 82 106 160 171 197 228 218 237 240 248 245 112 270 97 5 93 115 120 115 133 148 95 66 134 140 152 159 169
347 344 341 338 335 331 328 323 319 315 312 308 304 307 286 236 249 122 132 156 182 211 220 217 225 233 258 296 252 234 91 150 123 107 86 137 92 111 77 120 131 144 157 165 175
343 339 336 334 331 327 323 320 316 311 307 300 291 292 243 258 208 142 198 170 192 204 216 221 228 239 288 294 279 82 198 140 141 114 149 116 121 167 118 132 137 152 166 172 175
339 337 334 331 327 324 321 319 314 309 303 294 266 241 260 251 63 173 204 192 204 206 215 220 236 261 222 263 212 185 164 154 146 157 149 135 160 101 137 148 150 164 172 175 178
336 334 332 329 325 321 319 315 310 303 295 286 230 230 267 301 242 198 207 187 201 205 228 229 237 260 267 313 226 220 177 181 153 170 127 237 113 134 151 158 164 174 177 179 182
334 332 330 326 323 320 317 309 302 285 270 215 210 236 258 127 215 214 210 200 195 206 216 240 229 237 232 236 222 215 208 122 158 192 147 159 134 138 168 168 171 181 182 186 184
334 331 329 325 322 320 318 296 309 240 219 216 267 248 237 220 200 198 194 193 186 179 188 210 214 223 233 214 224 192 231 137 198 174 180 200 118 152 177 180 179 186 185 191 191
333 331 329 323 322 318 321 232 208 193 222 241 208 234 156 158 133 202 185 185 193 188 194 198 205 211 208 218 240 201 154 252 163 155 196 223 185 155 180 194 189 188 190 195 200
332 330 328 322 319 313 289 296 33 343 292 251 247 246 240 186 191 190 183 190 197 199 206 183 214 214 224 220 240 257 259 215 155 143 206 197 218 190 169 203 197 192 192 200 197
331 329 327 323 317 293 321 31 329 322 261 262 224 218 215 204 222 187 193 205 195 204 203 211 210 221 214 224 233 242 240 235 181 161 203 253 254 232 187 185 208 203 194 198 198
330 328 326 327 289 336 276 10 321 334 270 233 206 217 211 202 226 208 197 207 206 215 217 226 218 206 224 225 217 231 228 251 237 162 214 203 254 199 197 190 192 207 199 195 198
328 325 324 317 307 292 9 318 318 257 271 110 147 137 190 196 170 208 183 211 221 211 217 214 221 225 219 213 221 232 222 226 256 188 254 171 257 266 166 189 192 203 204 203 191
325 320 326 296 239 261 306 312 270 230 239 170 147 189 177 198 230 179 200 213 224 225 224 236 213 231 219 216 224 222 243 202 235 245 222 244 238 221 205 198 187 195 204 203 199
321 311 306 287 276 342 311 268 224 241 110 172 175 181 193 189 213 176 193 199 208 215 214 213 232 221 217 222 219 217 232 218 219 223 242 236 217 251 206 173 183 179 199 201 200
319 308 266 241 279 297 276 228 238 241 233 54 202 185 203 191 210 194 189 203 211 212 205 206 215 203 215 228 219 216 223 227 214 226 232 222 251 242 253 276 233 194 179 194 200
312 302 276 229 226 265 241 220 217 244 278 228 208 215 207 204 195 190 214 209 205 214 225 199 223 190 217 216 229 210 221 235 246 222 243 236 191 223 221 217 230 232 189 184 199
312 294 258 76 250 235 233 236 228 282 343 303 257 216 216 206 199 200 202 210 216 211 222 242 221 214 197 212 228 233 204 228 239 245 255 252 231 225 185 215 227 228 207 192 201
277 275 102 164 223 229 233 232 245 267 291 263 273 262 241 219 208 221 211 217 209 210 217 236 234 207 190 207 209 221 224 217 240 236 249 250 251 209 219 188 218 227 207 196 191
294 266 105 272 243 229 238 237 259 263 270 254 263 279 288 270 253 211 224 223 214 213 206 218 228 238 200 202 223 223 219 233 233 228 250 253 249 250 213 182 223 250 249 295 0
278 289 279 234 252 231 248 237 253 269 253 258 253 255 268 275 270 253 249 219 256 207 222 197 227 223 248 193 208 224 226 227 231 247 241 234 240 251 128 159 186 218 251 234 244
284 291 193 203 257 292 294 285 272 261 255 266 276 266 252 244 261 258 246 219 179 248 356 202 219 230 220 223 200 217 222 232 229 233 233 243 253 237 224 197 203 226 226 230 218
257 276 19 298 301 304 317 297 282 263 243 261 265 252 259 243 241 238 257 256 192 243 265 232 224 232 233 256 222 200 219 231 234 235 240 234 239 239 228 248 226 235 256 253 261
287 330 346 293 289 269 256 254 250 249 266 260 243 295 251 255 251 240 247 251 235 220 223 229 225 234 240 234 251 253 218 219 233 232 233 244 255 253 241 244 238 238 242 259 253
318 313 312 292 270 254 261 266 250 14 260 268 350 329 267 316 333 323 313 306 301 287 213 230 218 222 235 229 238 242 238 225 220 236 228 236 241 248 258 260 242 247 251 252 249